Time,TemperatureF,DewpointF,PressureIn,WindDirection,WindDirectionDegrees,WindSpeedMPH,WindSpeedGustMPH,Humidity,HourlyPrecipIn,Conditions,Clouds,dailyrainin,SoftwareType,DateUTC
2013-02-08 00:03:00,36.1,32.3,29.52,North,0,6.9,6.9,86,0.00,,---,0.00,VWS V14.00,2013-02-08 06:03:00,
2013-02-08 00:08:00,36.1,32.3,29.52,NNW,338,0.0,0.0,86,0.00,,---,0.00,VWS V14.00,2013-02-08 06:08:00,
2013-02-08 00:13:00,35.9,32.1,29.52,NW,315,0.0,0.0,86,0.00,,---,0.00,VWS V14.00,2013-02-08 06:13:00,
2013-02-08 00:18:00,35.9,32.1,29.52,NW,315,5.5,5.5,86,0.00,,---,0.00,VWS V14.00,2013-02-08 06:18:00,
2013-02-08 00:23:00,35.9,32.1,29.53,North,0,5.5,5.5,86,0.00,,---,0.00,VWS V14.00,2013-02-08 06:23:00,
2013-02-08 00:28:00,35.9,32.1,29.52,NNW,338,11.8,11.8,86,0.00,,---,0.00,VWS V14.00,2013-02-08 06:28:00,
2013-02-08 00:33:00,35.9,31.8,29.53,NNW,338,6.7,6.7,85,0.00,,---,0.00,VWS V14.00,2013-02-08 06:33:00,
2013-02-08 00:38:00,35.7,31.6,29.53,NNW,338,0.0,0.0,85,0.00,,---,0.00,VWS V14.00,2013-02-08 06:38:00,
2013-02-08 00:43:00,35.7,31.6,29.53,NW,315,8.5,8.5,85,0.00,,---,0.00,VWS V14.00,2013-02-08 06:43:00,
2013-02-08 00:48:00,35.7,31.6,29.53,North,0,7.6,7.6,85,0.00,,---,0.00,VWS V14.00,2013-02-08 06:48:00,
2013-02-08 00:53:00,35.7,31.6,29.53,NW,315,0.0,0.0,85,0.00,,---,0.00,VWS V14.00,2013-02-08 06:53:00,
2013-02-08 00:58:00,35.7,31.6,29.54,NW,315,2.4,2.4,85,0.00,,---,0.00,VWS V14.00,2013-02-08 06:58:00,
2013-02-08 01:03:00,35.7,31.6,29.54,NW,315,3.5,4.2,85,0.00,,---,0.00,VWS V14.00,2013-02-08 07:03:00,
2013-02-08 01:08:00,35.4,31.4,29.54,North,0,4.4,5.1,85,0.00,,---,0.00,VWS V14.00,2013-02-08 07:08:00,
2013-02-08 01:13:00,35.4,31.4,29.54,North,0,2.0,2.9,85,0.00,,---,0.00,VWS V14.00,2013-02-08 07:13:00,
2013-02-08 01:18:00,35.4,31.4,29.54,North,0,2.4,2.4,85,0.00,,---,0.00,VWS V14.00,2013-02-08 07:18:00,
2013-02-08 01:23:00,35.4,31.4,29.54,NW,315,0.0,5.3,85,0.00,,---,0.00,VWS V14.00,2013-02-08 07:23:00,
2013-02-08 01:28:00,35.4,31.4,29.54,North,0,5.3,6.4,85,0.00,,---,0.00,VWS V14.00,2013-02-08 07:28:00,
2013-02-08 01:33:00,35.4,31.4,29.55,North,0,0.0,4.9,85,0.00,,---,0.00,VWS V14.00,2013-02-08 07:33:00,
2013-02-08 01:38:00,35.4,31.4,29.55,NNW,338,10.0,10.0,85,0.00,,---,0.00,VWS V14.00,2013-02-08 07:38:00,
2013-02-08 01:43:00,35.4,31.4,29.55,North,0,5.1,5.1,85,0.00,,---,0.00,VWS V14.00,2013-02-08 07:43:00,
2013-02-08 01:48:00,35.4,31.4,29.55,NNW,338,0.0,0.0,85,0.00,,---,0.00,VWS V14.00,2013-02-08 07:48:00,
2013-02-08 01:53:00,35.2,31.1,29.56,NNE,22,0.0,0.0,85,0.00,,---,0.00,VWS V14.00,2013-02-08 07:53:00,
2013-02-08 01:58:00,35.2,31.1,29.56,NNW,338,3.8,9.1,85,0.00,,---,0.00,VWS V14.00,2013-02-08 07:58:00,
2013-02-08 02:03:00,35.2,31.1,29.56,NNW,338,0.0,0.0,85,0.00,,---,0.00,VWS V14.00,2013-02-08 08:03:00,
2013-02-08 02:08:00,35.2,31.1,29.56,NNW,338,6.0,6.0,85,0.00,,---,0.00,VWS V14.00,2013-02-08 08:08:00,
2013-02-08 02:13:00,35.2,31.1,29.56,NNW,338,2.4,2.4,85,0.00,,---,0.00,VWS V14.00,2013-02-08 08:13:00,
2013-02-08 02:18:00,34.8,30.8,29.56,NNW,338,0.0,0.0,85,0.00,,---,0.00,VWS V14.00,2013-02-08 08:18:00,
2013-02-08 02:23:00,34.8,30.8,29.56,NNW,338,2.9,4.2,85,0.00,,---,0.00,VWS V14.00,2013-02-08 08:23:00,
2013-02-08 02:28:00,34.8,30.8,29.56,NW,315,0.0,0.0,85,0.00,,---,0.00,VWS V14.00,2013-02-08 08:28:00,
2013-02-08 02:33:00,34.7,30.7,29.57,North,0,6.9,6.9,85,0.00,,---,0.00,VWS V14.00,2013-02-08 08:33:00,
2013-02-08 02:38:00,34.5,30.5,29.57,NNW,338,0.0,0.0,85,0.00,,---,0.00,VWS V14.00,2013-02-08 08:38:00,
2013-02-08 02:43:00,34.3,30.3,29.57,NNW,338,4.2,4.2,85,0.00,,---,0.00,VWS V14.00,2013-02-08 08:43:00,
2013-02-08 02:48:00,34.3,30.3,29.57,North,0,0.0,3.3,85,0.00,,---,0.00,VWS V14.00,2013-02-08 08:48:00,
2013-02-08 02:53:00,34.3,30.3,29.57,NNW,338,0.0,5.3,85,0.00,,---,0.00,VWS V14.00,2013-02-08 08:53:00,
2013-02-08 02:58:00,34.3,30.3,29.58,North,0,0.0,0.0,85,0.00,,---,0.00,VWS V14.00,2013-02-08 08:58:00,
2013-02-08 03:03:00,34.3,30.3,29.58,NW,315,4.4,6.7,85,0.00,,---,0.00,VWS V14.00,2013-02-08 09:03:00,
2013-02-08 03:08:00,34.3,30.3,29.58,NNW,338,4.2,4.2,85,0.00,,---,0.00,VWS V14.00,2013-02-08 09:08:00,
2013-02-08 03:13:00,34.3,30.3,29.58,NW,315,0.0,11.4,85,0.00,,---,0.00,VWS V14.00,2013-02-08 09:13:00,
2013-02-08 03:18:00,34.1,30.1,29.59,NW,315,3.3,5.3,85,0.00,,---,0.00,VWS V14.00,2013-02-08 09:18:00,
2013-02-08 03:24:00,33.9,29.9,29.60,NNW,338,10.5,10.5,85,0.00,,---,0.00,VWS V14.00,2013-02-08 09:24:00,
2013-02-08 03:29:00,33.6,29.3,29.60,North,0,4.2,9.6,84,0.00,,---,0.00,VWS V14.00,2013-02-08 09:29:00,
2013-02-08 03:34:00,33.4,28.8,29.60,North,0,7.8,8.7,83,0.00,,---,0.00,VWS V14.00,2013-02-08 09:34:00,
2013-02-08 03:39:00,33.2,28.6,29.60,NNW,338,2.4,7.8,83,0.00,,---,0.00,VWS V14.00,2013-02-08 09:39:00,
2013-02-08 03:44:00,33.0,28.4,29.60,NNW,338,2.6,4.6,83,0.00,,---,0.00,VWS V14.00,2013-02-08 09:44:00,
2013-02-08 03:49:00,32.9,28.3,29.60,NNW,338,5.8,5.8,83,0.00,,---,0.00,VWS V14.00,2013-02-08 09:49:00,
2013-02-08 03:54:00,32.7,28.1,29.60,NNW,338,8.2,8.2,83,0.00,,---,0.00,VWS V14.00,2013-02-08 09:54:00,
2013-02-08 03:59:00,32.7,28.1,29.61,NNW,338,0.0,4.9,83,0.00,,---,0.00,VWS V14.00,2013-02-08 09:59:00,
2013-02-08 04:04:00,32.7,28.1,29.61,North,0,1.1,1.1,83,0.00,,---,0.00,VWS V14.00,2013-02-08 10:04:00,
2013-02-08 04:09:00,32.7,28.1,29.61,NNW,338,0.0,0.0,83,0.00,,---,0.00,VWS V14.00,2013-02-08 10:09:00,
2013-02-08 04:14:00,32.7,28.1,29.62,NNW,338,0.0,0.0,83,0.00,,---,0.00,VWS V14.00,2013-02-08 10:14:00,
2013-02-08 04:19:00,32.7,28.1,29.63,NNW,338,0.0,5.5,83,0.00,,---,0.00,VWS V14.00,2013-02-08 10:19:00,
2013-02-08 04:24:00,32.7,28.1,29.62,NNW,338,4.6,4.6,83,0.00,,---,0.00,VWS V14.00,2013-02-08 10:24:00,
2013-02-08 04:29:00,32.7,28.1,29.63,NNW,338,0.0,4.0,83,0.00,,---,0.00,VWS V14.00,2013-02-08 10:29:00,
2013-02-08 04:34:00,32.7,28.1,29.63,NNW,338,4.0,4.0,83,0.00,,---,0.00,VWS V14.00,2013-02-08 10:34:00,
2013-02-08 04:39:00,32.7,28.1,29.63,North,0,3.3,3.3,83,0.00,,---,0.00,VWS V14.00,2013-02-08 10:39:00,
2013-02-08 04:44:00,32.7,28.1,29.64,NNW,338,6.0,6.0,83,0.00,,---,0.00,VWS V14.00,2013-02-08 10:44:00,
2013-02-08 04:49:00,32.7,28.1,29.64,North,0,3.3,3.3,83,0.00,,---,0.00,VWS V14.00,2013-02-08 10:49:00,
2013-02-08 04:54:00,32.7,28.1,29.64,NNW,338,0.0,0.0,83,0.00,,---,0.00,VWS V14.00,2013-02-08 10:54:00,
2013-02-08 05:00:00,32.7,28.1,29.65,NNW,338,0.0,0.0,83,0.00,,---,0.00,VWS V14.00,2013-02-08 11:00:00,
2013-02-08 05:05:00,32.7,28.1,29.65,North,0,0.0,2.0,83,0.00,,---,0.00,VWS V14.00,2013-02-08 11:05:00,
2013-02-08 05:10:00,32.7,28.1,29.65,North,0,0.0,0.0,83,0.00,,---,0.00,VWS V14.00,2013-02-08 11:10:00,
2013-02-08 05:15:00,32.7,28.1,29.66,NNW,338,6.9,6.9,83,0.00,,---,0.00,VWS V14.00,2013-02-08 11:15:00,
2013-02-08 05:20:00,32.5,27.9,29.66,NNW,338,0.0,0.0,83,0.00,,---,0.00,VWS V14.00,2013-02-08 11:20:00,
2013-02-08 05:25:00,32.7,28.1,29.66,North,0,0.0,0.0,83,0.00,,---,0.00,VWS V14.00,2013-02-08 11:25:00,
2013-02-08 05:30:00,32.5,27.9,29.66,NNW,338,4.6,4.6,83,0.00,,---,0.00,VWS V14.00,2013-02-08 11:30:00,
2013-02-08 05:35:00,32.5,27.9,29.66,NNW,338,5.3,5.3,83,0.00,,---,0.00,VWS V14.00,2013-02-08 11:35:00,
2013-02-08 05:40:00,32.5,27.9,29.66,North,0,3.8,4.4,83,0.00,,---,0.00,VWS V14.00,2013-02-08 11:40:00,
2013-02-08 05:45:00,32.5,27.9,29.66,NNW,338,1.1,3.8,83,0.00,,---,0.00,VWS V14.00,2013-02-08 11:45:00,
2013-02-08 05:50:00,32.5,27.9,29.66,NNW,338,4.6,6.0,83,0.00,,---,0.00,VWS V14.00,2013-02-08 11:50:00,
2013-02-08 05:55:00,32.5,27.9,29.67,North,0,4.6,7.3,83,0.00,,---,0.00,VWS V14.00,2013-02-08 11:55:00,
2013-02-08 06:00:00,32.3,27.7,29.68,NNE,22,1.3,6.2,83,0.00,,---,0.00,VWS V14.00,2013-02-08 12:00:00,
2013-02-08 06:05:00,32.3,27.7,29.68,North,0,6.9,6.9,83,0.00,,---,0.00,VWS V14.00,2013-02-08 12:05:00,
2013-02-08 06:10:00,32.3,27.7,29.68,NNW,338,10.0,10.0,83,0.00,,---,0.00,VWS V14.00,2013-02-08 12:10:00,
2013-02-08 06:15:00,32.1,27.5,29.69,North,0,4.2,8.0,83,0.00,,---,0.00,VWS V14.00,2013-02-08 12:15:00,
2013-02-08 06:20:00,32.1,27.2,29.69,NNW,338,6.7,6.7,82,0.00,,---,0.00,VWS V14.00,2013-02-08 12:20:00,
2013-02-08 06:25:00,31.8,26.6,29.70,North,0,0.4,0.4,81,0.00,,---,0.00,VWS V14.00,2013-02-08 12:25:00,
2013-02-08 06:30:00,31.6,26.5,29.70,NNW,338,4.6,7.3,81,0.00,,---,0.00,VWS V14.00,2013-02-08 12:30:00,
2013-02-08 06:35:00,31.2,26.1,29.71,NNW,338,7.6,7.6,81,0.00,,---,0.00,VWS V14.00,2013-02-08 12:35:00,
2013-02-08 06:40:00,30.9,25.8,29.71,NNE,22,10.5,10.5,81,0.00,,---,0.00,VWS V14.00,2013-02-08 12:40:00,
2013-02-08 06:45:00,30.7,25.6,29.71,North,0,1.7,2.0,81,0.00,,---,0.00,VWS V14.00,2013-02-08 12:45:00,
2013-02-08 06:50:00,30.5,25.4,29.71,NNE,22,7.6,7.6,81,0.00,,---,0.00,VWS V14.00,2013-02-08 12:50:00,
2013-02-08 06:55:00,30.3,25.2,29.71,NNE,22,5.3,6.0,81,0.00,,---,0.00,VWS V14.00,2013-02-08 12:55:00,
2013-02-08 07:00:00,30.3,25.2,29.72,NNW,338,5.8,6.2,81,0.00,,---,0.00,VWS V14.00,2013-02-08 13:00:00,
2013-02-08 07:05:00,30.3,25.2,29.72,NNW,338,5.3,5.8,81,0.00,,---,0.00,VWS V14.00,2013-02-08 13:05:00,
2013-02-08 07:10:00,30.3,25.2,29.72,NNW,338,2.6,6.7,81,0.00,,---,0.00,VWS V14.00,2013-02-08 13:10:00,
2013-02-08 07:15:00,30.3,25.2,29.73,NNE,22,2.6,5.5,81,0.00,,---,0.00,VWS V14.00,2013-02-08 13:15:00,
2013-02-08 07:20:00,30.3,25.2,29.73,North,0,1.7,6.2,81,0.00,,---,0.00,VWS V14.00,2013-02-08 13:20:00,
2013-02-08 07:26:00,30.5,25.4,29.73,North,0,0.0,8.0,81,0.00,,---,0.00,VWS V14.00,2013-02-08 13:26:00,
2013-02-08 07:31:00,30.5,25.4,29.74,NNE,22,5.8,6.2,81,0.00,,---,0.00,VWS V14.00,2013-02-08 13:31:00,
2013-02-08 07:36:00,30.7,25.6,29.74,North,0,6.4,6.4,81,0.00,,---,0.00,VWS V14.00,2013-02-08 13:36:00,
2013-02-08 07:41:00,30.7,25.6,29.74,NNW,338,2.6,5.3,81,0.00,,---,0.00,VWS V14.00,2013-02-08 13:41:00,
2013-02-08 07:46:00,30.7,25.6,29.74,NNW,338,5.8,5.8,81,0.00,,---,0.00,VWS V14.00,2013-02-08 13:46:00,
2013-02-08 07:51:00,30.7,25.6,29.75,NNW,338,2.4,10.0,81,0.00,,---,0.00,VWS V14.00,2013-02-08 13:51:00,
2013-02-08 07:56:00,30.7,25.6,29.75,NNE,22,4.2,4.2,81,0.00,,---,0.00,VWS V14.00,2013-02-08 13:56:00,
2013-02-08 08:01:00,30.7,25.6,29.75,NNW,338,8.7,8.7,81,0.00,,---,0.00,VWS V14.00,2013-02-08 14:01:00,
2013-02-08 08:06:00,30.7,25.3,29.75,NNW,338,3.3,9.6,80,0.00,,---,0.00,VWS V14.00,2013-02-08 14:06:00,
2013-02-08 08:12:00,30.7,25.3,29.76,NNW,338,4.2,4.2,80,0.00,,---,0.00,VWS V14.00,2013-02-08 14:12:00,
2013-02-08 08:17:00,30.5,24.8,29.76,North,0,0.0,0.0,79,0.00,,---,0.00,VWS V14.00,2013-02-08 14:17:00,
2013-02-08 08:22:00,30.3,24.6,29.76,NNW,338,6.7,6.7,79,0.00,,---,0.00,VWS V14.00,2013-02-08 14:22:00,
2013-02-08 08:27:00,30.3,24.6,29.76,NNW,338,0.0,0.0,79,0.00,,---,0.00,VWS V14.00,2013-02-08 14:27:00,
2013-02-08 08:32:00,30.3,24.6,29.77,NNW,338,2.4,2.4,79,0.00,,---,0.00,VWS V14.00,2013-02-08 14:32:00,
2013-02-08 08:37:00,30.3,24.6,29.77,NNW,338,4.4,4.4,79,0.00,,---,0.00,VWS V14.00,2013-02-08 14:37:00,
2013-02-08 08:42:00,30.3,24.6,29.77,NNW,338,0.0,2.6,79,0.00,,---,0.00,VWS V14.00,2013-02-08 14:42:00,
2013-02-08 08:47:00,30.3,24.6,29.78,North,0,0.0,0.0,79,0.00,,---,0.00,VWS V14.00,2013-02-08 14:47:00,
2013-02-08 08:52:00,30.3,24.6,29.78,NNW,338,0.0,0.0,79,0.00,,---,0.00,VWS V14.00,2013-02-08 14:52:00,
2013-02-08 08:57:00,30.3,24.6,29.78,NNW,338,5.1,5.5,79,0.00,,---,0.00,VWS V14.00,2013-02-08 14:57:00,
2013-02-08 09:02:00,30.2,24.2,29.78,North,0,0.0,5.5,78,0.00,,---,0.00,VWS V14.00,2013-02-08 15:02:00,
2013-02-08 09:07:00,30.0,24.0,29.79,NW,315,8.5,8.5,78,0.00,,---,0.00,VWS V14.00,2013-02-08 15:07:00,
2013-02-08 09:12:00,30.0,24.0,29.78,NNE,22,6.7,6.7,78,0.00,,---,0.00,VWS V14.00,2013-02-08 15:12:00,
2013-02-08 09:17:00,30.0,24.0,29.79,NNE,22,4.9,6.4,78,0.00,,---,0.00,VWS V14.00,2013-02-08 15:17:00,
2013-02-08 09:22:00,30.0,24.0,29.79,North,0,0.0,9.1,78,0.00,,---,0.00,VWS V14.00,2013-02-08 15:22:00,
2013-02-08 09:27:00,30.2,23.9,29.79,NNE,22,7.3,8.7,77,0.00,,---,0.00,VWS V14.00,2013-02-08 15:27:00,
2013-02-08 09:32:00,30.3,24.0,29.79,North,0,8.7,8.7,77,0.00,,---,0.00,VWS V14.00,2013-02-08 15:32:00,
2013-02-08 09:37:00,30.3,24.0,29.79,NNE,22,6.0,6.0,77,0.00,,---,0.00,VWS V14.00,2013-02-08 15:37:00,
2013-02-08 09:42:00,30.7,24.4,29.80,NNW,338,6.2,6.2,77,0.00,,---,0.00,VWS V14.00,2013-02-08 15:42:00,
2013-02-08 09:47:00,30.7,24.4,29.80,NNW,338,4.9,4.9,77,0.00,,---,0.00,VWS V14.00,2013-02-08 15:47:00,
2013-02-08 09:52:00,30.7,24.4,29.80,NW,315,0.0,0.0,77,0.00,,---,0.00,VWS V14.00,2013-02-08 15:52:00,
2013-02-08 09:57:00,30.7,24.4,29.80,NNW,338,7.6,7.6,77,0.00,,---,0.00,VWS V14.00,2013-02-08 15:57:00,
2013-02-08 10:02:00,30.7,24.4,29.81,North,0,4.0,4.6,77,0.00,,---,0.00,VWS V14.00,2013-02-08 16:02:00,
2013-02-08 10:07:00,30.5,23.9,29.81,NNE,22,4.4,9.6,76,0.00,,---,0.00,VWS V14.00,2013-02-08 16:07:00,
2013-02-08 10:12:00,30.3,23.7,29.81,NW,315,0.0,0.0,76,0.00,,---,0.00,VWS V14.00,2013-02-08 16:12:00,
2013-02-08 10:17:00,30.3,23.7,29.81,North,0,0.0,4.2,76,0.00,,---,0.00,VWS V14.00,2013-02-08 16:17:00,
2013-02-08 10:22:00,30.7,24.0,29.81,North,0,6.0,6.0,76,0.00,,---,0.00,VWS V14.00,2013-02-08 16:22:00,
2013-02-08 10:27:00,30.7,24.0,29.82,North,0,7.1,7.1,76,0.00,,---,0.00,VWS V14.00,2013-02-08 16:27:00,
2013-02-08 10:32:00,30.5,23.9,29.81,NNW,338,5.8,7.6,76,0.00,,---,0.00,VWS V14.00,2013-02-08 16:32:00,
2013-02-08 10:37:00,30.3,23.3,29.81,North,0,6.4,6.4,75,0.00,,---,0.00,VWS V14.00,2013-02-08 16:37:00,
2013-02-08 10:42:00,30.5,23.5,29.81,North,0,4.4,7.3,75,0.00,,---,0.00,VWS V14.00,2013-02-08 16:42:00,
2013-02-08 10:47:00,30.7,23.7,29.82,NNW,338,2.6,5.5,75,0.00,,---,0.00,VWS V14.00,2013-02-08 16:47:00,
2013-02-08 10:52:00,30.7,23.7,29.82,North,0,6.7,6.7,75,0.00,,---,0.00,VWS V14.00,2013-02-08 16:52:00,
2013-02-08 10:57:00,30.7,23.7,29.82,North,0,7.6,7.6,75,0.00,,---,0.00,VWS V14.00,2013-02-08 16:57:00,
2013-02-08 11:02:00,30.9,23.9,29.82,NNW,338,4.6,4.6,75,0.00,,---,0.00,VWS V14.00,2013-02-08 17:02:00,
2013-02-08 11:07:00,30.9,23.9,29.82,NNW,338,0.0,10.9,75,0.00,,---,0.00,VWS V14.00,2013-02-08 17:07:00,
2013-02-08 11:12:00,30.9,23.9,29.82,NE,45,6.0,6.0,75,0.00,,---,0.00,VWS V14.00,2013-02-08 17:12:00,
2013-02-08 11:17:00,30.7,23.7,29.83,NNE,22,7.8,7.8,75,0.00,,---,0.00,VWS V14.00,2013-02-08 17:17:00,
2013-02-08 11:22:00,30.7,23.7,29.83,NNW,338,8.0,9.8,75,0.00,,---,0.00,VWS V14.00,2013-02-08 17:22:00,
2013-02-08 11:27:00,30.7,23.7,29.83,North,0,4.4,7.1,75,0.00,,---,0.00,VWS V14.00,2013-02-08 17:27:00,
2013-02-08 11:32:00,30.7,23.7,29.82,North,0,6.9,7.8,75,0.00,,---,0.00,VWS V14.00,2013-02-08 17:32:00,
2013-02-08 11:37:00,30.7,23.7,29.82,North,0,0.0,5.3,75,0.00,,---,0.00,VWS V14.00,2013-02-08 17:37:00,
2013-02-08 11:42:00,30.7,23.7,29.83,North,0,3.1,6.9,75,0.00,,---,0.00,VWS V14.00,2013-02-08 17:42:00,
2013-02-08 11:47:00,30.7,23.7,29.84,North,0,3.3,3.3,75,0.00,,---,0.00,VWS V14.00,2013-02-08 17:47:00,
2013-02-08 11:52:00,30.7,23.7,29.83,NNE,22,2.9,5.8,75,0.00,,---,0.00,VWS V14.00,2013-02-08 17:52:00,
2013-02-08 11:57:00,30.7,23.7,29.83,NNE,22,5.3,6.0,75,0.00,,---,0.00,VWS V14.00,2013-02-08 17:57:00,
2013-02-08 12:02:00,30.7,23.7,29.84,North,0,7.8,7.8,75,0.00,,---,0.00,VWS V14.00,2013-02-08 18:02:00,
2013-02-08 12:08:00,30.3,23.3,29.84,NNW,338,0.0,3.5,75,0.00,,---,0.00,VWS V14.00,2013-02-08 18:08:00,
2013-02-08 12:13:00,30.3,23.3,29.84,NNW,338,0.0,0.0,75,0.00,,---,0.00,VWS V14.00,2013-02-08 18:13:00,
2013-02-08 12:18:00,30.3,23.3,29.84,North,0,0.0,2.4,75,0.00,,---,0.00,VWS V14.00,2013-02-08 18:18:00,
2013-02-08 12:23:00,30.2,23.2,29.84,North,0,0.0,0.0,75,0.00,,---,0.00,VWS V14.00,2013-02-08 18:23:00,
2013-02-08 12:29:00,30.2,23.2,29.83,NNE,22,3.5,3.5,75,0.00,,---,0.00,VWS V14.00,2013-02-08 18:29:00,
2013-02-08 12:34:00,30.2,23.6,29.83,NNE,22,4.2,5.8,76,0.00,,---,0.00,VWS V14.00,2013-02-08 18:34:00,
2013-02-08 12:40:00,30.0,23.4,29.83,NNE,22,4.9,6.4,76,0.00,,---,0.00,VWS V14.00,2013-02-08 18:40:00,
2013-02-08 12:45:00,30.0,23.4,29.83,NNE,22,4.2,7.6,76,0.00,,---,0.00,VWS V14.00,2013-02-08 18:45:00,
2013-02-08 12:50:00,30.0,23.4,29.83,NNE,22,0.0,6.2,76,0.00,,---,0.00,VWS V14.00,2013-02-08 18:50:00,
2013-02-08 12:55:00,30.0,23.4,29.83,North,0,0.0,2.6,76,0.00,,---,0.00,VWS V14.00,2013-02-08 18:55:00,
2013-02-08 13:01:00,30.3,23.7,29.83,NNE,22,0.0,0.0,76,0.00,,---,0.00,VWS V14.00,2013-02-08 19:01:00,
2013-02-08 13:06:00,30.3,23.7,29.83,NNW,338,0.0,0.0,76,0.00,,---,0.00,VWS V14.00,2013-02-08 19:06:00,
2013-02-08 13:11:00,30.5,23.5,29.83,North,0,0.0,1.7,75,0.00,,---,0.00,VWS V14.00,2013-02-08 19:11:00,
2013-02-08 13:16:00,30.3,23.3,29.84,NNW,338,0.0,4.9,75,0.00,,---,0.00,VWS V14.00,2013-02-08 19:16:00,
2013-02-08 13:21:00,30.3,23.7,29.84,North,0,0.0,4.4,76,0.00,,---,0.00,VWS V14.00,2013-02-08 19:21:00,
2013-02-08 13:26:00,30.3,23.7,29.83,NNE,22,7.6,9.1,76,0.00,,---,0.00,VWS V14.00,2013-02-08 19:26:00,
2013-02-08 13:31:00,30.3,23.7,29.83,NNE,22,0.0,0.0,76,0.00,,---,0.00,VWS V14.00,2013-02-08 19:31:00,
2013-02-08 13:36:00,30.3,23.7,29.83,NNW,338,2.4,2.4,76,0.00,,---,0.00,VWS V14.00,2013-02-08 19:36:00,
2013-02-08 13:41:00,30.5,23.9,29.84,North,0,2.2,2.2,76,0.00,,---,0.00,VWS V14.00,2013-02-08 19:41:00,
2013-02-08 13:46:00,30.7,23.7,29.83,NNW,338,1.3,7.3,75,0.00,,---,0.00,VWS V14.00,2013-02-08 19:46:00,
2013-02-08 13:51:00,30.7,23.7,29.83,NNW,338,2.0,2.0,75,0.00,,---,0.00,VWS V14.00,2013-02-08 19:51:00,
2013-02-08 13:56:00,30.7,23.7,29.83,North,0,0.0,0.0,75,0.00,,---,0.00,VWS V14.00,2013-02-08 19:56:00,
2013-02-08 14:01:00,30.7,23.7,29.83,North,0,2.0,6.7,75,0.00,,---,0.00,VWS V14.00,2013-02-08 20:01:00,
2013-02-08 14:06:00,30.5,23.5,29.83,NNW,338,0.0,3.8,75,0.00,,---,0.00,VWS V14.00,2013-02-08 20:06:00,
2013-02-08 14:11:00,30.7,24.0,29.84,NNW,338,0.0,0.0,76,0.00,,---,0.00,VWS V14.00,2013-02-08 20:11:00,
2013-02-08 14:16:00,30.7,23.7,29.83,North,0,1.7,2.9,75,0.00,,---,0.00,VWS V14.00,2013-02-08 20:16:00,
2013-02-08 14:21:00,30.7,23.7,29.83,NNE,22,2.4,2.4,75,0.00,,---,0.00,VWS V14.00,2013-02-08 20:21:00,
2013-02-08 14:26:00,30.7,24.0,29.83,NNW,338,0.0,0.0,76,0.00,,---,0.00,VWS V14.00,2013-02-08 20:26:00,
2013-02-08 14:31:00,30.7,24.0,29.83,NNE,22,0.0,0.0,76,0.00,,---,0.00,VWS V14.00,2013-02-08 20:31:00,
2013-02-08 14:36:00,30.7,24.0,29.83,NE,45,7.8,7.8,76,0.00,,---,0.00,VWS V14.00,2013-02-08 20:36:00,
2013-02-08 14:41:00,30.7,23.7,29.84,NNE,22,0.0,4.9,75,0.00,,---,0.00,VWS V14.00,2013-02-08 20:41:00,
2013-02-08 14:47:00,30.7,23.7,29.84,NNW,338,1.1,2.9,75,0.00,,---,0.00,VWS V14.00,2013-02-08 20:47:00,
2013-02-08 14:52:00,30.7,23.7,29.84,NNE,22,4.4,4.4,75,0.00,,---,0.00,VWS V14.00,2013-02-08 20:52:00,
2013-02-08 14:57:00,30.7,23.7,29.84,North,0,4.2,4.2,75,0.00,,---,0.00,VWS V14.00,2013-02-08 20:57:00,
2013-02-08 15:02:00,30.7,23.7,29.84,NNE,22,10.0,10.0,75,0.00,,---,0.00,VWS V14.00,2013-02-08 21:02:00,
2013-02-08 15:08:00,30.5,23.5,29.84,North,0,4.2,4.2,75,0.00,,---,0.00,VWS V14.00,2013-02-08 21:08:00,
2013-02-08 15:13:00,30.5,23.5,29.84,North,0,0.0,0.0,75,0.00,,---,0.00,VWS V14.00,2013-02-08 21:13:00,
2013-02-08 15:18:00,30.5,23.5,29.84,NNW,338,0.0,0.0,75,0.00,,---,0.00,VWS V14.00,2013-02-08 21:18:00,
2013-02-08 15:23:00,30.5,23.9,29.84,North,0,2.6,2.6,76,0.00,,---,0.00,VWS V14.00,2013-02-08 21:23:00,
2013-02-08 15:28:00,30.5,23.9,29.84,NNE,22,1.7,2.2,76,0.00,,---,0.00,VWS V14.00,2013-02-08 21:28:00,
2013-02-08 15:33:00,30.3,23.7,29.84,NNE,22,4.2,4.2,76,0.00,,---,0.00,VWS V14.00,2013-02-08 21:33:00,
2013-02-08 15:38:00,30.3,23.7,29.84,North,0,2.9,2.9,76,0.00,,---,0.00,VWS V14.00,2013-02-08 21:38:00,
2013-02-08 15:43:00,30.3,23.7,29.85,North,0,0.0,6.7,76,0.00,,---,0.00,VWS V14.00,2013-02-08 21:43:00,
2013-02-08 15:48:00,30.2,23.6,29.85,NNE,22,3.8,4.9,76,0.00,,---,0.00,VWS V14.00,2013-02-08 21:48:00,
2013-02-08 15:53:00,30.0,23.4,29.85,NNE,22,0.0,0.0,76,0.00,,---,0.00,VWS V14.00,2013-02-08 21:53:00,
2013-02-08 15:59:00,30.0,23.4,29.86,North,0,0.0,0.0,76,0.00,,---,0.00,VWS V14.00,2013-02-08 21:59:00,
2013-02-08 16:04:00,30.0,23.4,29.86,NNW,338,0.0,0.0,76,0.00,,---,0.00,VWS V14.00,2013-02-08 22:04:00,
2013-02-08 16:09:00,30.0,23.4,29.86,North,0,0.0,0.0,76,0.00,,---,0.00,VWS V14.00,2013-02-08 22:09:00,
2013-02-08 16:14:00,30.0,23.4,29.86,NNE,22,2.9,2.9,76,0.00,,---,0.00,VWS V14.00,2013-02-08 22:14:00,
2013-02-08 16:19:00,30.0,23.4,29.86,NE,45,0.0,0.0,76,0.00,,---,0.00,VWS V14.00,2013-02-08 22:19:00,
2013-02-08 16:24:00,29.8,23.2,29.85,NE,45,0.0,3.3,76,0.00,,---,0.00,VWS V14.00,2013-02-08 22:24:00,
2013-02-08 16:29:00,29.8,23.2,29.86,NNE,22,0.0,3.3,76,0.00,,---,0.00,VWS V14.00,2013-02-08 22:29:00,
2013-02-08 16:34:00,29.8,23.5,29.86,North,0,0.0,6.0,77,0.00,,---,0.00,VWS V14.00,2013-02-08 22:34:00,
2013-02-08 16:39:00,29.8,23.5,29.86,NNE,22,0.0,0.0,77,0.00,,---,0.00,VWS V14.00,2013-02-08 22:39:00,
2013-02-08 16:44:00,29.8,23.2,29.85,North,0,0.0,0.0,76,0.00,,---,0.00,VWS V14.00,2013-02-08 22:44:00,
2013-02-08 16:49:00,29.6,23.0,29.85,NNE,22,0.0,0.0,76,0.00,,---,0.00,VWS V14.00,2013-02-08 22:49:00,
2013-02-08 16:55:00,29.6,23.3,29.86,NE,45,0.0,0.0,77,0.00,,---,0.00,VWS V14.00,2013-02-08 22:55:00,
2013-02-08 17:00:00,29.4,23.1,29.86,NNE,22,0.0,0.0,77,0.00,,---,0.00,VWS V14.00,2013-02-08 23:00:00,
2013-02-08 17:05:00,29.4,23.1,29.87,NNE,22,0.0,0.0,77,0.00,,---,0.00,VWS V14.00,2013-02-08 23:05:00,
2013-02-08 17:10:00,29.4,23.1,29.87,NNE,22,0.0,0.0,77,0.00,,---,0.00,VWS V14.00,2013-02-08 23:10:00,
2013-02-08 17:15:00,29.3,23.0,29.87,North,0,0.0,0.0,77,0.00,,---,0.00,VWS V14.00,2013-02-08 23:15:00,
2013-02-08 17:20:00,29.3,23.0,29.87,NNW,338,0.0,0.0,77,0.00,,---,0.00,VWS V14.00,2013-02-08 23:20:00,
2013-02-08 17:25:00,29.3,23.0,29.87,NNE,22,0.0,0.0,77,0.00,,---,0.00,VWS V14.00,2013-02-08 23:25:00,
2013-02-08 17:30:00,29.3,23.0,29.87,NNE,22,0.0,0.0,77,0.00,,---,0.00,VWS V14.00,2013-02-08 23:30:00,
2013-02-08 17:35:00,29.1,22.8,29.87,NE,45,0.0,0.0,77,0.00,,---,0.00,VWS V14.00,2013-02-08 23:35:00,
2013-02-08 17:40:00,29.1,22.8,29.87,ESE,112,0.0,0.0,77,0.00,,---,0.00,VWS V14.00,2013-02-08 23:40:00,
2013-02-08 17:45:00,29.1,22.8,29.87,NNE,22,1.7,1.7,77,0.00,,---,0.00,VWS V14.00,2013-02-08 23:45:00,
2013-02-08 17:50:00,28.9,22.6,29.87,NNE,22,0.0,0.0,77,0.00,,---,0.00,VWS V14.00,2013-02-08 23:50:00,
2013-02-08 17:55:00,28.9,22.6,29.87,NNE,22,0.0,0.0,77,0.00,,---,0.00,VWS V14.00,2013-02-08 23:55:00,
2013-02-08 18:00:00,28.7,22.4,29.87,NNE,22,0.0,0.0,77,0.00,,---,0.00,VWS V14.00,2013-02-09 00:00:00,
2013-02-08 18:06:00,28.9,22.6,29.87,NE,45,0.0,0.0,77,0.00,,---,0.00,VWS V14.00,2013-02-09 00:06:00,
2013-02-08 18:11:00,28.7,22.4,29.87,ESE,112,0.0,0.0,77,0.00,,---,0.00,VWS V14.00,2013-02-09 00:11:00,
2013-02-08 18:16:00,28.9,22.6,29.87,ESE,112,0.0,0.0,77,0.00,,---,0.00,VWS V14.00,2013-02-09 00:16:00,
2013-02-08 18:21:00,28.9,22.6,29.87,ESE,112,0.0,0.0,77,0.00,,---,0.00,VWS V14.00,2013-02-09 00:21:00,
2013-02-08 18:26:00,28.9,22.6,29.87,ESE,112,0.0,0.0,77,0.00,,---,0.00,VWS V14.00,2013-02-09 00:26:00,
2013-02-08 18:31:00,28.9,22.6,29.87,ESE,112,0.0,0.0,77,0.00,,---,0.00,VWS V14.00,2013-02-09 00:31:00,
2013-02-08 18:36:00,28.9,22.6,29.86,NNE,22,0.0,0.0,77,0.00,,---,0.00,VWS V14.00,2013-02-09 00:36:00,
2013-02-08 18:41:00,28.7,22.4,29.86,NNE,22,1.1,3.3,77,0.00,,---,0.00,VWS V14.00,2013-02-09 00:41:00,
2013-02-08 18:46:00,28.7,22.4,29.85,NNE,22,0.0,0.0,77,0.00,,---,0.00,VWS V14.00,2013-02-09 00:46:00,
2013-02-08 18:51:00,28.7,22.7,29.86,NNE,22,0.0,0.0,78,0.00,,---,0.00,VWS V14.00,2013-02-09 00:51:00,
2013-02-08 18:56:00,28.7,22.7,29.86,ENE,68,0.0,0.0,78,0.00,,---,0.00,VWS V14.00,2013-02-09 00:56:00,
2013-02-08 19:01:00,28.7,22.7,29.86,ENE,68,0.0,0.0,78,0.00,,---,0.00,VWS V14.00,2013-02-09 01:01:00,
2013-02-08 19:06:00,28.7,22.7,29.85,ENE,68,0.0,0.0,78,0.00,,---,0.00,VWS V14.00,2013-02-09 01:06:00,
2013-02-08 19:11:00,28.7,22.7,29.85,NNE,22,0.0,4.6,78,0.00,,---,0.00,VWS V14.00,2013-02-09 01:11:00,
2013-02-08 19:16:00,28.7,22.7,29.85,NE,45,0.0,0.0,78,0.00,,---,0.00,VWS V14.00,2013-02-09 01:16:00,
2013-02-08 19:21:00,28.7,22.7,29.86,ENE,68,0.0,0.0,78,0.00,,---,0.00,VWS V14.00,2013-02-09 01:21:00,
2013-02-08 19:26:00,28.7,22.7,29.86,NE,45,0.0,0.0,78,0.00,,---,0.00,VWS V14.00,2013-02-09 01:26:00,
2013-02-08 19:31:00,28.5,22.5,29.86,NNE,22,0.0,0.0,78,0.00,,---,0.00,VWS V14.00,2013-02-09 01:31:00,
2013-02-08 19:36:00,28.5,22.5,29.86,NNE,22,0.0,0.0,78,0.00,,---,0.00,VWS V14.00,2013-02-09 01:36:00,
2013-02-08 19:41:00,28.5,22.8,29.86,NE,45,0.0,0.0,79,0.00,,---,0.00,VWS V14.00,2013-02-09 01:41:00,
2013-02-08 19:46:00,28.5,22.8,29.86,ENE,68,0.0,0.0,79,0.00,,---,0.00,VWS V14.00,2013-02-09 01:46:00,
2013-02-08 19:51:00,28.5,22.8,29.86,NE,45,0.0,0.0,79,0.00,,---,0.00,VWS V14.00,2013-02-09 01:51:00,
2013-02-08 19:56:00,28.5,22.8,29.86,NE,45,1.5,2.9,79,0.00,,---,0.00,VWS V14.00,2013-02-09 01:56:00,
2013-02-08 20:01:00,28.5,22.5,29.87,East,90,0.0,2.0,78,0.00,,---,0.00,VWS V14.00,2013-02-09 02:01:00,
2013-02-08 20:06:00,28.5,22.5,29.86,NNE,22,0.0,0.0,78,0.00,,---,0.00,VWS V14.00,2013-02-09 02:06:00,
2013-02-08 20:11:00,28.2,22.2,29.87,ESE,112,0.0,0.0,78,0.00,,---,0.00,VWS V14.00,2013-02-09 02:11:00,
2013-02-08 20:16:00,28.4,22.4,29.87,ESE,112,0.0,0.0,78,0.00,,---,0.00,VWS V14.00,2013-02-09 02:16:00,
2013-02-08 20:21:00,28.5,22.5,29.87,NE,45,0.0,0.0,78,0.00,,---,0.00,VWS V14.00,2013-02-09 02:21:00,
2013-02-08 20:26:00,28.5,22.5,29.87,NE,45,0.0,0.0,78,0.00,,---,0.00,VWS V14.00,2013-02-09 02:26:00,
2013-02-08 20:31:00,28.5,22.5,29.87,NNE,22,0.0,0.0,78,0.00,,---,0.00,VWS V14.00,2013-02-09 02:31:00,
2013-02-08 20:36:00,28.5,22.5,29.88,NNE,22,0.0,0.0,78,0.00,,---,0.00,VWS V14.00,2013-02-09 02:36:00,
2013-02-08 20:41:00,28.5,22.5,29.88,ESE,112,0.0,0.0,78,0.00,,---,0.00,VWS V14.00,2013-02-09 02:41:00,
2013-02-08 20:46:00,28.5,22.5,29.89,SE,135,0.0,0.0,78,0.00,,---,0.00,VWS V14.00,2013-02-09 02:46:00,
2013-02-08 20:51:00,28.5,22.5,29.89,SE,135,0.0,1.7,78,0.00,,---,0.00,VWS V14.00,2013-02-09 02:51:00,
2013-02-08 20:56:00,28.5,22.5,29.88,East,90,0.0,0.0,78,0.00,,---,0.00,VWS V14.00,2013-02-09 02:56:00,
2013-02-08 21:01:00,28.7,22.7,29.88,ESE,112,0.0,0.0,78,0.00,,---,0.00,VWS V14.00,2013-02-09 03:01:00,
2013-02-08 21:06:00,28.7,22.7,29.87,NE,45,0.0,0.0,78,0.00,,---,0.00,VWS V14.00,2013-02-09 03:06:00,
2013-02-08 21:11:00,28.7,22.7,29.87,NE,45,0.0,0.0,78,0.00,,---,0.00,VWS V14.00,2013-02-09 03:11:00,
2013-02-08 21:17:00,28.7,22.7,29.87,ENE,68,0.0,0.0,78,0.00,,---,0.00,VWS V14.00,2013-02-09 03:17:00,
2013-02-08 21:22:00,28.9,22.9,29.87,SE,135,0.0,0.0,78,0.00,,---,0.00,VWS V14.00,2013-02-09 03:22:00,
2013-02-08 21:27:00,28.9,22.9,29.87,SE,135,0.0,0.0,78,0.00,,---,0.00,VWS V14.00,2013-02-09 03:27:00,
2013-02-08 21:32:00,29.1,23.1,29.87,ESE,112,0.0,0.0,78,0.00,,---,0.00,VWS V14.00,2013-02-09 03:32:00,
2013-02-08 21:38:00,29.1,23.1,29.87,ESE,112,0.0,0.0,78,0.00,,---,0.00,VWS V14.00,2013-02-09 03:38:00,
2013-02-08 21:43:00,29.1,22.8,29.87,East,90,0.0,0.0,77,0.00,,---,0.00,VWS V14.00,2013-02-09 03:43:00,
2013-02-08 21:48:00,28.9,22.6,29.87,SE,135,4.2,4.2,77,0.00,,---,0.00,VWS V14.00,2013-02-09 03:48:00,
2013-02-08 21:53:00,28.9,22.6,29.87,ESE,112,0.0,0.0,77,0.00,,---,0.00,VWS V14.00,2013-02-09 03:53:00,
2013-02-08 21:58:00,28.9,22.6,29.87,ESE,112,0.0,0.0,77,0.00,,---,0.00,VWS V14.00,2013-02-09 03:58:00,
2013-02-08 22:04:00,28.9,22.6,29.87,ESE,112,0.0,0.0,77,0.00,,---,0.00,VWS V14.00,2013-02-09 04:04:00,
2013-02-08 22:10:00,28.9,22.6,29.87,ESE,112,0.0,0.0,77,0.00,,---,0.00,VWS V14.00,2013-02-09 04:10:00,
2013-02-08 22:15:00,28.9,22.6,29.87,ESE,112,0.0,0.0,77,0.00,,---,0.00,VWS V14.00,2013-02-09 04:15:00,
2013-02-08 22:20:00,28.9,22.9,29.87,SSE,158,0.0,1.5,78,0.00,,---,0.00,VWS V14.00,2013-02-09 04:20:00,
2013-02-08 22:26:00,29.1,23.1,29.87,SSE,158,0.0,0.0,78,0.00,,---,0.00,VWS V14.00,2013-02-09 04:26:00,
2013-02-08 22:32:00,29.1,23.1,29.87,SSE,158,0.0,0.0,78,0.00,,---,0.00,VWS V14.00,2013-02-09 04:32:00,
2013-02-08 22:37:00,29.1,23.1,29.87,SSE,158,0.0,0.0,78,0.00,,---,0.00,VWS V14.00,2013-02-09 04:37:00,
2013-02-08 22:42:00,29.1,23.1,29.87,SSE,158,0.0,0.0,78,0.00,,---,0.00,VWS V14.00,2013-02-09 04:42:00,
2013-02-08 22:47:00,29.1,23.1,29.87,SE,135,0.0,0.0,78,0.00,,---,0.00,VWS V14.00,2013-02-09 04:47:00,
2013-02-08 22:52:00,29.1,22.8,29.87,ENE,68,0.0,0.0,77,0.00,,---,0.00,VWS V14.00,2013-02-09 04:52:00,
2013-02-08 22:58:00,29.1,22.8,29.87,SSE,158,0.0,0.0,77,0.00,,---,0.00,VWS V14.00,2013-02-09 04:58:00,
2013-02-08 23:00:00,29.1,22.8,29.87,SE,135,0.0,0.0,77,0.00,,---,0.00,VWS V14.00,2013-02-09 05:00:00,
2013-02-08 23:01:00,29.1,22.8,29.87,SE,135,0.0,0.0,77,0.00,,---,0.00,VWS V14.00,2013-02-09 05:01:00,
2013-02-08 23:02:00,29.1,22.8,29.86,SE,135,0.0,0.0,77,0.00,,---,0.00,VWS V14.00,2013-02-09 05:02:00,
2013-02-08 23:07:00,29.1,22.8,29.87,SE,135,0.0,0.0,77,0.00,,---,0.00,VWS V14.00,2013-02-09 05:07:00,
2013-02-08 23:11:00,29.1,22.8,29.87,ESE,112,0.0,0.0,77,0.00,,---,0.00,VWS V14.00,2013-02-09 05:11:00,
2013-02-08 23:16:00,29.1,23.1,29.87,ESE,112,0.0,1.3,78,0.00,,---,0.00,VWS V14.00,2013-02-09 05:16:00,
2013-02-08 23:21:00,29.1,23.1,29.86,SE,135,0.0,0.0,78,0.00,,---,0.00,VWS V14.00,2013-02-09 05:21:00,
2013-02-08 23:26:00,29.1,23.1,29.86,SE,135,0.0,0.0,78,0.00,,---,0.00,VWS V14.00,2013-02-09 05:26:00,
2013-02-08 23:31:00,29.1,23.1,29.87,ESE,112,0.0,0.0,78,0.00,,---,0.00,VWS V14.00,2013-02-09 05:31:00,
2013-02-08 23:36:00,29.1,23.1,29.86,SE,135,0.0,0.0,78,0.00,,---,0.00,VWS V14.00,2013-02-09 05:36:00,
2013-02-08 23:41:00,29.3,23.3,29.87,SSE,158,0.0,2.0,78,0.00,,---,0.00,VWS V14.00,2013-02-09 05:41:00,
2013-02-08 23:46:00,29.3,23.3,29.87,SE,135,0.0,0.0,78,0.00,,---,0.00,VWS V14.00,2013-02-09 05:46:00,
2013-02-08 23:51:00,29.3,23.3,29.86,ESE,112,0.0,0.0,78,0.00,,---,0.00,VWS V14.00,2013-02-09 05:51:00,
2013-02-08 23:56:00,29.3,23.3,29.86,ESE,112,0.0,0.0,78,0.00,,---,0.00,VWS V14.00,2013-02-09 05:56:00,